Location: Pittsburgh
(40.4410°N, 79.9960°W)
Time: 00:18:16
(UTC-04:00)

BlueWalker 3 - Pass Details

Date: 17 March 2026
Orbit: 449 x 457 km, 53.2° (Epoch: 17 April)

Event Time Altitude Azimuth Distance (km) Brightness Sun altitude
Exits shadow 06:22:26 18° 295° (WNW) 1,176 3.3 -13.3°
Maximum altitude 06:24:50 52° 224° (SW) 575 1.9 -12.9°
Drops below altitude 10° 06:28:18 10° 148° (SSE) 1,585 4.8 -12.2°
Sets 06:30:27 0° 143° (SE) 2,453 5.9 -11.8°
